Regional Weather Roundup
Issued by NWS

Home | Current Version | Previous Version | Graphics & Text | Print | Product List | Glossary On
Versions: 1 2 3 4 5 6 7 8 9 10 11 12 13 14 15 16 17 18 19 20 21 22 23 24 25 26 27 28 29 30 31 32 33 34 35 36 37 38 39 40 41 42 43 44 45 46 47 48 49 50
000
ASUS43 KDMX 021904
RWRIA

WEATHER ROUNDUP FOR IOWA
NATIONAL WEATHER SERVICE DES MOINES IA
  ISSUED BY NWS QUAD CITIES IA IL
100 PM CST MON MAR 02 2015

NOTE: "FAIR" INDICATES FEW OR NO CLOUDS BELOW 12,000 FEET WITH NO
SIGNIFICANT WEATHER AND/OR OBSTRUCTIONS TO VISIBILITY.

* - THESE STATIONS ARE NOT NWS STATIONS...THUS NOT UNDER NWS
QUALITY CONTROL.  THEY ALSO DO NOT REPORT WEATHER SUCH
AS PRECIPITATION OR FOG.

IAZ001>003-012>014-020>022-031>034-043>046-022000-
   NORTHWEST IOWA

CITY           SKY/WX    TMP DP  RH WIND       PRES   REMARKS
SIOUX CITY     CLOUDY    32  17  54 SE14      30.32F WCI  22
SPENCER        CLOUDY    26  16  65 S14       30.34F WCI  14
$$

IAZ055>058-069>071-079>083-090>094-022000-
   SOUTHWEST IOWA

CITY           SKY/WX    TMP DP  RH WIND       PRES   REMARKS
CLARINDA *     MOSUNNY   39  19  45 SE10G18   30.39F WCI  32
LAMONI         PTSUNNY   33  19  56 E8        30.39F WCI  26
$$

IAZ047>049-059>061-072>074-084-022000-
   CENTRAL IOWA

CITY           SKY/WX    TMP DP  RH WIND       PRES   REMARKS
AMES           CLOUDY    26  15  63 SE7       30.42F WCI  18
DES MOINES     CLOUDY    30  14  51 SE7       30.42F WCI  23
MARSHALLTOWN   CLOUDY    23  14  68 E6        30.43F WCI  16
$$

IAZ004>006-015-016-023>025-035-036-022000-
   NORTH CENTRAL IOWA

CITY           SKY/WX    TMP DP  RH WIND       PRES   REMARKS
ESTHERVILLE    PTSUNNY   23  14  68 S13       30.35F WCI  11
FORT DODGE *   CLOUDY    27  16  63 S9        30.41F WCI  17
MASON CITY     MOSUNNY   19  12  74 S6        30.42F WCI  11
IOWA FALLS *   CLOUDY    24  13  62 SE7       30.43F WCI  16
$$

IAZ007>011-017>019-026>030-037>042-050>054-066-022000-
   NORTHEAST IOWA

CITY           SKY/WX    TMP DP  RH WIND       PRES   REMARKS
CEDAR RAPIDS   SUNNY     23  15  71 CALM      30.45F
CLINTON *      SUNNY     23  16  74 W3        30.51F
DUBUQUE        MOSUNNY   23  14  68 S5        30.45F WCI  17
WATERLOO         N/A     21  12  68 NE6       30.45F WCI  13
$$

IAZ064-065-067-068-078-022000-
   EAST CENTRAL IOWA

CITY           SKY/WX    TMP DP  RH WIND       PRES   REMARKS
DAVENPORT      FLURRIES  25  13  60 CALM      30.48F
IOWA CITY      SUNNY     25  15  66 SE6       30.48F WCI  18
QUAD CITIES    SUNNY     29  15  56 E6        30.47F WCI  23
$$

IAZ062-063-075>077-085>089-095>099-022000-
   SOUTHEAST IOWA

CITY           SKY/WX    TMP DP  RH WIND       PRES   REMARKS
BURLINGTON     PTSUNNY   28  13  53 E3        30.47F
OTTUMWA        CLOUDY    29  14  53 E6        30.45F WCI  23
$$

ABBREVIATIONS USED IN REMARKS
   TC - TEMPERATURES IN CELSIUS
  WCI - WIND CHILL INDEX
   HX - HEAT INDEX
  VSB - VISIBILITY
$$


USA.gov is the U.S. government's official web portal to all federal, state and local government web resources and services.